Total_Precipitation_Accumulation
0.21 0.22 0.31 0.46 0.45 0.31 0.12 0.03 0.02 0.03 0.04 0.06 0.08 0.09 0.08 0.09 0.14 0.30 0.31 0.23 0.22 0.26 0.38 0.68 1.03 1.22 1.21 1.12 1.01 0.92 0.86 0.80 0.85 0.89 0.92 0.91 0.87 0.85 0.84 0.89 0.91 1.01 1.14 1.09 1.07 0.99 0.97 0.88 0.76
0.23 0.34 0.54 0.65 0.50 0.31 0.12 0.04 0.03 0.03 0.05 0.06 0.08 0.09 0.09 0.10 0.11 0.19 0.30 0.29 0.27 0.31 0.43 0.67 1.01 1.27 1.30 1.23 1.14 1.08 1.07 1.01 0.97 1.02 1.06 1.04 1.05 1.00 0.96 0.99 1.00 1.01 1.08 0.97 0.90 0.77 0.72 0.64 0.58
0.38 0.54 0.75 0.71 0.52 0.29 0.12 0.04 0.04 0.05 0.06 0.08 0.10 0.11 0.13 0.16 0.16 0.21 0.32 0.39 0.43 0.46 0.59 0.84 1.12 1.34 1.45 1.36 1.32 1.28 1.26 1.23 1.19 1.14 1.16 1.18 1.16 1.15 1.07 1.01 1.01 0.98 0.99 0.87 0.78 0.64 0.54 0.49 0.45
0.61 0.80 0.85 0.71 0.50 0.25 0.11 0.07 0.07 0.08 0.08 0.09 0.13 0.19 0.19 0.19 0.22 0.28 0.40 0.49 0.55 0.62 0.76 1.04 1.29 1.45 1.54 1.46 1.41 1.41 1.42 1.45 1.40 1.29 1.23 1.25 1.25 1.18 1.06 0.97 0.92 0.84 0.83 0.79 0.69 0.59 0.51 0.45 0.45
0.90 1.02 0.86 0.66 0.43 0.22 0.10 0.09 0.10 0.11 0.12 0.13 0.16 0.23 0.28 0.26 0.28 0.40 0.58 0.68 0.72 0.85 0.99 1.23 1.54 1.73 1.76 1.67 1.62 1.58 1.56 1.57 1.58 1.48 1.35 1.36 1.40 1.34 1.13 0.97 0.85 0.76 0.74 0.71 0.65 0.58 0.52 0.47 0.45
1.18 1.18 0.91 0.58 0.35 0.22 0.11 0.10 0.12 0.14 0.15 0.17 0.23 0.29 0.40 0.39 0.42 0.54 0.77 0.90 0.95 1.08 1.24 1.49 1.81 1.93 2.01 1.91 1.83 1.81 1.77 1.68 1.65 1.64 1.57 1.50 1.52 1.48 1.26 0.99 0.87 0.83 0.80 0.75 0.72 0.66 0.56 0.50 0.44
1.18 1.19 0.86 0.45 0.30 0.25 0.14 0.12 0.16 0.17 0.17 0.21 0.26 0.37 0.51 0.58 0.69 0.78 0.98 1.19 1.29 1.42 1.60 1.74 1.94 2.07 2.27 2.12 1.93 1.94 1.92 1.81 1.76 1.74 1.69 1.55 1.52 1.45 1.27 1.05 0.95 0.94 0.91 0.84 0.78 0.73 0.65 0.57 0.48
1.18 1.28 0.86 0.43 0.28 0.28 0.19 0.17 0.20 0.22 0.22 0.23 0.33 0.45 0.56 0.69 0.88 1.09 1.32 1.44 1.65 1.77 1.95 2.03 2.14 2.23 2.41 2.37 2.11 1.94 1.84 1.78 1.80 1.73 1.54 1.30 1.29 1.34 1.27 1.01 0.94 0.97 0.94 0.93 0.86 0.76 0.69 0.60 0.49
1.21 1.29 0.83 0.46 0.34 0.30 0.26 0.28 0.26 0.25 0.33 0.37 0.43 0.50 0.63 0.83 1.14 1.43 1.70 1.83 2.01 2.19 2.27 2.32 2.33 2.30 2.41 2.50 2.31 2.21 2.05 1.93 1.83 1.72 1.46 1.32 1.37 1.32 1.23 0.99 0.85 0.93 0.94 1.00 1.04 0.94 0.79 0.64 0.53
1.26 1.06 0.62 0.41 0.37 0.36 0.32 0.34 0.35 0.41 0.47 0.53 0.62 0.70 0.86 1.17 1.56 1.75 1.88 1.97 2.12 2.29 2.37 2.50 2.45 2.43 2.51 2.52 2.47 2.49 2.33 2.15 1.97 1.75 1.59 1.50 1.41 1.40 1.27 1.18 0.96 0.99 1.03 1.04 1.10 0.99 0.88 0.69 0.53
0.92 0.77 0.53 0.42 0.40 0.41 0.41 0.39 0.41 0.50 0.55 0.53 0.62 0.82 1.14 1.53 1.92 1.98 2.13 2.25 2.28 2.45 2.53 2.64 2.60 2.64 2.64 2.59 2.47 2.46 2.37 2.36 2.22 2.01 1.77 1.67 1.59 1.51 1.50 1.34 1.20 1.16 1.09 1.11 1.02 0.93 0.83 0.69 0.58
0.67 0.53 0.50 0.48 0.43 0.46 0.48 0.48 0.52 0.52 0.53 0.53 0.61 0.81 1.19 1.62 1.93 2.03 2.27 2.43 2.56 2.68 2.81 2.84 2.82 2.88 2.87 2.75 2.53 2.36 2.22 2.21 2.22 2.07 2.02 1.88 1.75 1.61 1.49 1.34 1.21 1.17 1.08 1.04 0.97 0.88 0.79 0.69 0.62
0.53 0.44 0.44 0.51 0.51 0.49 0.49 0.49 0.58 0.51 0.50 0.57 0.68 0.93 1.23 1.63 2.00 2.18 2.45 2.63 2.79 2.96 3.02 3.10 3.08 3.00 2.92 2.93 2.79 2.43 2.18 2.01 2.04 2.07 2.08 2.02 1.80 1.61 1.54 1.40 1.35 1.25 1.13 1.10 1.05 0.94 0.85 0.78 0.73
0.44 0.42 0.49 0.57 0.62 0.53 0.53 0.53 0.58 0.55 0.53 0.65 0.78 0.98 1.22 1.61 2.11 2.35 2.65 2.92 2.91 3.17 3.30 3.41 3.33 3.22 2.97 2.82 2.82 2.60 2.31 2.12 2.04 2.00 2.01 2.15 2.03 1.82 1.75 1.55 1.51 1.43 1.33 1.25 1.20 1.11 1.07 0.98 0.90
0.48 0.58 0.63 0.66 0.70 0.58 0.61 0.71 0.62 0.56 0.53 0.63 0.77 0.98 1.20 1.54 1.99 2.32 2.59 2.80 3.06 3.27 3.52 3.60 3.59 3.47 3.16 2.90 2.88 2.75 2.54 2.37 2.21 1.91 1.89 2.05 2.15 2.10 2.02 1.77 1.63 1.55 1.53 1.54 1.47 1.36 1.27 1.20 1.08
0.78 0.93 0.86 0.61 0.67 0.65 0.76 0.82 0.56 0.55 0.58 0.60 0.69 0.90 1.12 1.34 1.72 2.07 2.46 2.71 2.98 3.34 3.56 3.66 3.67 3.64 3.41 3.11 3.01 2.95 2.73 2.57 2.43 2.18 2.01 2.00 2.11 2.23 2.26 1.95 1.71 1.61 1.62 1.61 1.55 1.48 1.36 1.19 1.13
1.12 0.92 0.70 0.54 0.56 0.71 0.72 0.76 0.61 0.57 0.61 0.57 0.60 0.77 1.07 1.26 1.49 1.76 2.15 2.53 2.76 3.15 3.44 3.73 3.72 3.64 3.55 3.42 3.32 3.24 3.12 2.88 2.68 2.39 2.16 2.15 2.21 2.34 2.45 2.13 1.84 1.76 1.76 1.69 1.65 1.58 1.53 1.33 1.18
0.91 0.59 0.49 0.51 0.54 0.66 0.63 0.56 0.60 0.63 0.63 0.58 0.62 0.72 0.95 1.20 1.28 1.50 1.84 2.33 2.58 2.94 3.28 3.52 3.84 3.82 3.86 3.86 3.72 3.60 3.52 3.31 3.01 2.64 2.33 2.25 2.24 2.34 2.57 2.40 2.14 2.03 1.95 1.86 1.73 1.63 1.64 1.60 1.49
0.73 0.61 0.47 0.38 0.44 0.61 0.59 0.50 0.58 0.58 0.63 0.63 0.66 0.72 0.81 1.00 1.17 1.41 1.74 2.13 2.46 2.71 3.05 3.21 3.48 3.76 3.86 3.81 3.57 3.38 3.28 3.40 3.33 2.97 2.65 2.59 2.44 2.34 2.48 2.50 2.40 2.25 2.11 1.97 1.88 1.80 1.74 1.76 1.80
0.89 0.83 0.58 0.43 0.39 0.59 0.60 0.54 0.56 0.59 0.63 0.65 0.68 0.68 0.74 0.85 1.03 1.29 1.69 1.90 2.14 2.42 2.64 2.95 3.08 3.44 3.57 3.45 3.44 3.34 3.32 3.38 3.44 3.33 3.06 2.89 2.77 2.57 2.46 2.45 2.45 2.38 2.28 2.18 2.12 2.04 1.98 1.88 1.85
0.94 0.80 0.67 0.61 0.54 0.65 0.74 0.71 0.58 0.58 0.57 0.53 0.56 0.56 0.67 0.76 0.87 1.09 1.45 1.75 1.89 2.16 2.47 2.60 2.75 3.03 3.37 3.48 3.67 3.81 3.79 3.60 3.43 3.34 3.31 3.15 3.07 2.92 2.65 2.51 2.52 2.50 2.39 2.28 2.24 2.22 2.23 2.22 2.14
0.98 0.59 0.66 0.73 0.96 0.96 0.80 1.00 0.70 0.57 0.53 0.51 0.54 0.54 0.63 0.73 0.81 0.96 1.10 1.38 1.61 1.80 2.23 2.55 2.76 2.95 3.16 3.57 3.65 3.58 3.44 3.22 2.99 3.05 3.17 3.22 3.20 3.14 2.93 2.79 2.75 2.65 2.51 2.42 2.44 2.42 2.41 2.45 2.44
0.89 0.61 0.72 0.85 1.06 1.08 0.75 0.88 0.71 0.50 0.52 0.54 0.57 0.59 0.71 0.84 0.89 0.94 1.01 1.16 1.36 1.55 1.94 2.34 2.62 2.97 3.21 3.38 3.49 3.57 3.37 3.11 3.05 3.04 3.06 3.03 3.02 3.06 3.03 2.94 2.99 2.88 2.74 2.63 2.63 2.63 2.62 2.59 2.54
0.97 1.01 1.11 1.20 1.58 1.60 0.71 0.72 0.72 0.62 0.64 0.61 0.59 0.63 0.76 0.89 0.93 0.92 0.99 1.13 1.31 1.44 1.67 2.07 2.35 2.54 2.86 3.18 3.26 3.32 3.31 3.25 3.16 2.98 2.92 2.95 2.95 2.96 2.98 2.99 2.98 2.96 2.94 2.84 2.76 2.71 2.69 2.64 2.56
1.42 2.04 2.71 2.68 2.36 1.30 0.50 0.58 0.71 0.66 0.68 0.71 0.72 0.74 0.80 0.84 0.88 0.89 0.97 1.11 1.32 1.48 1.61 1.76 1.97 2.12 2.34 2.65 2.85 2.92 3.05 3.15 3.02 2.88 2.73 2.70 2.72 2.73 2.77 2.83 2.90 2.91 2.87 2.92 2.90 2.86 2.74 2.67 2.63
1.45 1.76 2.13 1.80 1.15 0.67 0.47 0.60 0.71 0.66 0.68 0.70 0.73 0.73 0.74 0.80 0.85 0.88 0.90 0.99 1.14 1.34 1.53 1.61 1.72 1.84 2.01 2.19 2.36 2.58 2.76 2.95 2.96 2.86 2.66 2.56 2.50 2.48 2.63 2.68 2.62 2.65 2.73 2.80 2.86 2.83 2.69 2.60 2.52
1.34 1.36 1.23 1.55 0.99 0.68 0.58 0.54 0.53 0.48 0.50 0.59 0.65 0.66 0.72 0.80 0.83 0.85 0.86 0.89 1.03 1.17 1.36 1.47 1.58 1.70 1.79 1.91 2.06 2.28 2.42 2.54 2.63 2.72 2.64 2.57 2.48 2.42 2.38 2.41 2.41 2.34 2.39 2.53 2.67 2.67 2.58 2.50 2.41
1.10 1.13 1.41 1.99 1.61 0.97 0.60 0.47 0.62 0.60 0.58 0.62 0.65 0.72 0.81 0.85 0.81 0.79 0.83 0.90 1.00 1.06 1.20 1.37 1.47 1.55 1.60 1.70 1.79 1.91 2.09 2.29 2.38 2.50 2.46 2.39 2.41 2.41 2.31 2.17 2.15 2.12 2.12 2.21 2.33 2.35 2.33 2.33 2.26
1.06 1.34 1.60 1.64 1.34 1.18 0.87 0.75 0.76 0.72 0.67 0.70 0.71 0.76 0.85 0.88 0.86 0.85 0.88 0.97 1.06 1.06 1.13 1.31 1.41 1.53 1.59 1.61 1.66 1.70 1.76 1.89 2.06 2.23 2.32 2.24 2.28 2.33 2.29 2.12 2.05 2.01 1.95 1.96 2.03 2.00 2.05 2.10 2.10
0.93 1.06 1.34 1.80 1.36 0.99 0.96 0.93 0.75 0.71 0.68 0.67 0.71 0.75 0.79 0.83 0.85 0.91 0.97 0.97 1.00 1.09 1.18 1.27 1.36 1.49 1.60 1.64 1.65 1.68 1.70 1.73 1.83 1.92 2.11 2.16 2.22 2.21 2.26 2.19 2.06 1.97 1.89 1.84 1.87 1.85 1.80 1.81 1.85